Location: Lane
(33.5226°N, 79.8788°W)
Time: 11:23:10
(UTC+00:00)

Altair - Pass Details

Date: 03 October 2022
Orbit: 1501 x 1682 km, 47.2° (Epoch: 30 November)

Event Time Altitude Azimuth Distance (km) Brightness Sun altitude
Rises 10:22:31 0° 246° (WSW) 4,740 - -11.8°
Reaches altitude 10° 10:25:36 10° 250° (WSW) 3,781 - -11.2°
Exits shadow 10:25:53 11° 250° (WSW) 3,696 8.9 -11.1°
Maximum altitude 10:35:10 63° 330° (NNW) 1,781 7.7 -9.2°
Drops below altitude 10° 10:45:08 10° 51° (NE) 3,920 10.5 -7.1°
Sets 10:48:24 0° 55° (NE) 4,923 11.2 -6.4°
